Location: Clifton Park
(41.4873°N, 81.8024°W)
Time: 12:13:08
(UTC+00:00)

Abrixas rocket - Pass Details

Date: 21 January 2020
Orbit: 353 x 361 km, 48.4° (Epoch: 16 February)

Event Time Altitude Azimuth Distance (km) Brightness Sun altitude
Exits shadow 11:04:21 29° 15° (NNE) 699 3.4 -19.3°
Drops below altitude 10° 11:07:03 10° 79° (E) 1,346 5.8 -18.8°
Sets 11:09:14 0° 91° (E) 2,193 7.5 -18.4°
